This is the latest recevied weather packets stored in our database for station/object IN3BXS. If no packets are shown the sender has not sent any weather packets the latest 10 day(s).
| Time | Temp. | Humidity | Pressure | Rain* | Wind** | Luminosity | Snow |
|---|---|---|---|---|---|---|---|
| 1777341627 | 11.67° C | 27% | 1013.7 hPa | 0 mm | - | - | - |
| 1777339826 | 11.67° C | 27% | 1013.7 hPa | 0 mm | - | - | - |
| 1777338027 | 12.78° C | 26% | 1013.3 hPa | 0 mm | - | - | - |
| 1777336226 | 12.78° C | 26% | 1013.2 hPa | 0 mm | - | - | - |
| 1777334426 | 12.78° C | 26% | 1013.3 hPa | 0 mm | - | - | - |
| 1777332626 | 12.78° C | 26% | 1013.2 hPa | 0 mm | - | - | - |
| 1777330826 | 12.78° C | 26% | 1013.2 hPa | 0 mm | - | - | - |
| 1777329026 | 13.33° C | 25% | 1013 hPa | 0 mm | - | - | - |
| 1777327226 | 13.33° C | 25% | 1013 hPa | 0 mm | - | - | - |
| 1777325426 | 13.33° C | 25% | 1013 hPa | 0 mm | - | - | - |
| 1777323626 | 13.33° C | 25% | 1012.9 hPa | 0 mm | - | - | - |
| 1777321826 | 13.33° C | 25% | 1012.8 hPa | 0 mm | - | - | - |
| 1777320027 | 13.89° C | 25% | 1012.8 hPa | 0 mm | - | - | - |
| 1777318226 | 13.89° C | 24% | 1012.7 hPa | 0 mm | - | - | - |
| 1777314626 | 15° C | 24% | 1011.2 hPa | 0 mm | - | - | - |
| 1777311029 | 16.11° C | 21% | 1010.6 hPa | 0 mm | - | - | - |
| 1777309226 | 16.67° C | 21% | 1010.3 hPa | 0 mm | - | - | - |
| 1777307426 | 17.22° C | 21% | 1010.1 hPa | 0 mm | - | - | - |
| 1777305626 | 18.33° C | 20% | 1009.8 hPa | 0 mm | - | - | - |
| 1777303826 | 17.78° C | 20% | 1009.8 hPa | 0 mm | - | - | - |
| 1777302027 | 18.33° C | 20% | 1009.8 hPa | 0 mm | - | - | - |
| 1777300226 | 18.33° C | 20% | 1009.6 hPa | 0 mm | - | - | - |
| 1777298426 | 18.89° C | 20% | 1009.4 hPa | 0 mm | - | - | - |
| 1777296626 | 20° C | 20% | 1010.1 hPa | 0 mm | - | - | - |
| 1777294826 | 20.56° C | 20% | 1010 hPa | 0 mm | - | - | - |
* Rain latest hour (hover to see other rain measurements)
** Current wind speed in m/s (hover to see current wind gust speed)